History for Miami, FL

Thursday, November 22, 2012 — View Current Conditions

Jump to Data:

Date:
Airport Code:
Recently Viewed Airport Codes: KMIA
Daily Summary
  Actual Average Record
Temperature
Mean Temperature 67°F 74°F  
Max Temperature 75°F 81°F 86°F (1994)
Min Temperature 58°F 67°F 43°F (1937)
Degree Days
Heating Degree Days 0 0  
Month to date heating degree days 1 0  
Since 1 July heating degree days 1 0  
Cooling Degree Days 2 9  
Month to date cooling degree days 155 232  
Year to date cooling degree days 4394 4304  
Growing Degree Days 16 (Base 50)    
Moisture
Dew Point 49°F    
Average Humidity 58    
Maximum Humidity 77    
Minimum Humidity 38    
Precipitation
Precipitation 0.00 in 0.09 in 1.01 in (2013)
Month to date precipitation 0.24 2.59  
Year to date precipitation 86.17 59.18  
Snow
Snow 0.00 in in in ()
Month to date snowfall 0.0  
Since 1 July snowfall 0.0  
Since 1 September snowfall 0.0  
Snow Depth 0.00 in    
Sea Level Pressure
Sea Level Pressure 30.06 in    
Wind
Wind Speed 9 mph (NNW)    
Max Wind Speed 16 mph    
Max Gust Speed 23 mph    
Visibility 10 miles    
Events      
T = Trace of Precipitation, MM = Missing Value Source: NWS Daily Summary

Show full METARS

(help) - Comma Delimited File

Hourly Observations

Time(EST) Temperature Dew Point Humidity Sea Level Pressure Visibility Wind Direction Wind Speed Gust Speed Precipitation Events Conditions
12:53 AM 62.1°F 48.9°F 62% 30.04 in 10.0 miles NNW 6.9 mph - N/A   Clear
1:53 AM 61.0°F 46.9°F 60% 30.03 in 10.0 miles NW 5.8 mph 18.4 mph N/A   Clear
2:53 AM 59.0°F 48.9°F 69% 30.02 in 10.0 miles NNW 6.9 mph - N/A   Clear
3:53 AM 59.0°F 48.0°F 67% 30.02 in 10.0 miles NNW 8.1 mph - N/A   Clear
4:53 AM 59.0°F 48.9°F 69% 30.02 in 10.0 miles Variable 6.9 mph - N/A   Clear
5:53 AM 57.9°F 48.9°F 72% 30.03 in 10.0 miles NW 6.9 mph - N/A   Clear
6:53 AM 57.9°F 50.0°F 75% 30.05 in 10.0 miles NNW 5.8 mph - N/A   Partly Cloudy
7:53 AM 61.0°F 51.1°F 70% 30.07 in 10.0 miles NNW 6.9 mph - N/A   Clear
8:53 AM 64.0°F 51.1°F 63% 30.08 in 10.0 miles NW 5.8 mph - N/A   Clear
9:53 AM 66.9°F 51.1°F 57% 30.09 in 10.0 miles NNW 10.4 mph - N/A   Partly Cloudy
10:53 AM 71.1°F 52.0°F 51% 30.08 in 10.0 miles NNW 10.4 mph 18.4 mph N/A   Partly Cloudy
11:53 AM 72.0°F 52.0°F 49% 30.06 in 10.0 miles NNW 11.5 mph 19.6 mph N/A   Partly Cloudy
12:53 PM 73.0°F 53.1°F 49% 30.04 in 10.0 miles NNW 12.7 mph 23.0 mph N/A   Clear
1:53 PM 75.0°F 53.1°F 46% 30.02 in 10.0 miles North 11.5 mph 17.3 mph N/A   Partly Cloudy
2:53 PM 75.0°F 53.1°F 46% 30.02 in 10.0 miles NNW 8.1 mph 16.1 mph N/A   Partly Cloudy
3:53 PM 73.9°F 51.1°F 45% 30.03 in 10.0 miles North 10.4 mph 19.6 mph N/A   Partly Cloudy
4:53 PM 73.0°F 46.9°F 39% 30.04 in 10.0 miles North 9.2 mph 19.6 mph N/A   Partly Cloudy
5:53 PM 69.1°F 50.0°F 51% 30.06 in 10.0 miles Variable 6.9 mph - N/A   Partly Cloudy
6:53 PM 66.9°F 44.1°F 44% 30.09 in 10.0 miles NNW 10.4 mph 19.6 mph N/A   Partly Cloudy
7:53 PM 66.0°F 41.0°F 40% 30.11 in 10.0 miles NNW 6.9 mph - N/A   Partly Cloudy
8:53 PM 64.0°F 44.1°F 48% 30.12 in 10.0 miles North 10.4 mph 19.6 mph N/A   Partly Cloudy
9:53 PM 63.0°F 46.0°F 54% 30.12 in 10.0 miles NNW 11.5 mph 17.3 mph N/A   Clear
10:53 PM 61.0°F 46.0°F 58% 30.12 in 10.0 miles NNW 11.5 mph 21.9 mph N/A   Clear
11:53 PM 60.1°F 48.0°F 64% 30.11 in 10.0 miles NNW 9.2 mph - N/A   Clear